[[{"header":{"parameterUnit":"m.s-1","parameterCategory":1,"la1":30.2991,"la2":30.254,"lo1":-89.0895,"lo2":-89.0444,"dy":0.0017,"dx":0.0017,"nx":28,"ny":28,"refTime":"2025-05-28T21:00:00:Z","depth":0,"parameterNumber":2,"parameterNumberName":"U-component_of_WINDS"},"data":[0,0,0,0,0,0,0,0,0,0,0,0,0,0,0,0,0,0,0,0,0,0,0,0,0,0,0,0,0,0,0,0,0,0,0,0,0,0,0,0,0,0,0,0,0,0,0,0,0,0,0,0,0,0,0,0,0,0,5.0523,5.0523,0,5.0567,5.0568,5.0568,5.0565,5.0564,5.0563,5.0563,5.0608,5.061,5.0612,0,0,0,0,0,0,0,0,0,0,0,0,0,5.0435,5.0437,5.0523,5.0523,5.0524,5.0567,5.0568,5.0568,5.0565,5.0564,5.0563,5.0562,5.0608,5.061,5.0612,0,0,0,0,0,0,0,0,0,0,0,0,0,5.0476,5.0437,5.0523,5.0527,5.0528,5.0567,5.0568,5.0569,5.0565,5.0564,5.0563,5.0562,5.0607,5.061,5.0612,5.065,0,0,5.0621,5.0622,0,0,0,0,0,0,0,0,5.0474,5.0479,5.0526,5.0527,5.0528,5.0559,5.0554,5.0596,5.0565,5.0551,5.0563,5.0561,5.0593,5.0597,5.0607,5.0652,5.0654,5.0621,5.0623,5.0624,5.0625,0,0,0,0,0,0,0,5.0471,5.0477,5.054,5.0527,5.0528,5.0527,5.0532,5.0562,5.0577,5.0552,5.0552,5.0557,5.0593,5.0605,5.0608,5.0655,5.0621,5.0624,5.0625,5.0626,5.0734,5.0735,0,0,0,0,0,0,5.0467,5.0475,5.0539,5.0542,5.0498,5.053,5.0535,5.055,5.0577,5.058,5.0558,5.0557,5.06,5.0605,5.061,5.0657,5.0624,5.0627,5.0628,5.0733,5.0735,5.0736,0,0,0,0,0,0,5.0465,5.0473,5.0537,5.0508,5.0516,5.0532,5.055,5.0552,5.0563,5.0581,5.0584,5.0567,5.06,5.0606,5.064,5.0658,5.0628,5.063,5.0732,5.0734,5.0735,5.075,0,0,0,0,0,0,5.0462,5.0472,5.0486,5.0509,5.0518,5.0566,5.0551,5.0553,5.0568,5.0567,5.059,5.0593,5.06,5.0636,5.0643,5.0662,5.0633,5.073,5.0732,5.0735,5.0748,5.0752,5.0756,0,0,0,0,0,5.0459,5.0488,5.0487,5.0494,5.0536,5.0567,5.0573,5.058,5.0569,5.0584,5.0596,5.0592,5.0655,5.064,5.0648,5.0667,5.0729,5.0732,5.0734,5.0746,5.0751,5.0755,0,0,0,0,0,0,5.0466,5.0491,5.049,5.0526,5.0545,5.0567,5.0585,5.0584,5.0606,5.0604,5.0612,5.0617,5.0652,5.0663,5.0645,5.0706,5.0691,5.0695,5.0697,5.0702,5.0706,5.0703,5.0635,0,0,0,0,0,5.0472,5.0496,5.0516,5.0546,5.0556,5.0569,5.0583,5.0587,5.0606,5.0614,5.0628,5.0647,5.0672,5.0687,5.0711,5.075,5.0755,5.0767,5.0771,5.0774,5.0778,5.0801,5.0806,5.0745,5.0745,5.0745,0,0,5.0484,5.0501,5.0515,5.0548,5.0563,5.0588,5.0575,5.0602,5.062,5.0618,5.0652,5.0663,5.0685,5.0722,5.0739,5.0732,5.0796,5.0777,5.0779,5.0782,5.0804,5.081,5.0815,5.0747,5.0746,5.0746,0,0,5.052,5.0534,5.0562,5.0577,5.06,5.0609,5.0615,5.0638,5.0645,5.0679,5.0679,5.0701,5.0742,5.0758,5.0772,5.0815,5.0813,5.0822,5.0842,5.0865,5.087,5.0874,5.0891,5.0896,5.0826,5.0826,5.0826,0,5.0532,5.0569,5.0576,5.0603,5.0618,5.0618,5.0646,5.0661,5.069,5.0701,5.0693,5.0745,5.076,5.0802,5.0813,5.0823,5.0832,5.082,5.0868,5.0873,5.0877,5.0893,5.0899,5.0827,5.0827,5.0827,5.0827,0,5.0584,5.061,5.0629,5.0658,5.0676,5.0703,5.0715,5.0732,5.0734,5.0744,5.078,5.0798,5.0825,5.0835,5.0838,5.0878,5.0873,5.0867,5.0852,5.0884,5.0899,5.0905,5.0829,5.0828,5.0828,5.0828,0,0,5.0624,5.0658,5.0665,5.0679,5.0704,5.0725,5.0753,5.078,5.0795,5.0815,5.084,5.0876,5.087,5.0886,5.089,5.091,5.0945,5.0901,5.0902,5.0909,5.0992,5.0997,5.1004,5.0944,5.0945,5.0946,5.099,0,5.0663,5.0713,5.0721,5.0765,5.079,5.079,5.0815,5.0834,5.0844,5.0867,5.0878,5.0904,5.0894,5.0904,5.0923,5.0936,5.0961,5.0933,5.0967,5.0968,5.0962,5.1012,5.1017,5.1058,5.0996,5.0997,5.0998,0,5.0714,5.0737,5.0784,5.0808,5.0819,5.0841,5.0867,5.0889,5.0911,5.0917,5.0935,5.0938,5.0968,5.0952,5.0994,5.0975,5.0989,5.0998,5.1,5.1004,5.0985,5.1018,5.1071,5.1078,5.1007,5.1006,5.1006,0,5.0741,5.0783,5.0817,5.0828,5.0857,5.0873,5.0885,5.0906,5.0923,5.0946,5.0957,5.0983,5.0997,5.1018,5.1028,5.1015,5.107,5.1055,5.1077,5.1077,5.1089,5.1088,5.1146,5.1097,5.1097,5.1097,5.1097,0,5.0784,5.0813,5.0829,5.085,5.0883,5.0892,5.0924,5.0937,5.0955,5.0979,5.0981,5.1003,5.1015,5.1039,5.1047,5.1082,5.1088,5.1095,5.1096,5.1095,5.1094,5.1105,5.1103,5.1098,5.1098,5.1098,5.1097,0,5.0819,5.0831,5.0868,5.0892,5.0899,5.0923,5.0944,5.0964,5.0975,5.1005,5.1013,5.1029,5.1058,5.107,5.1105,5.1111,5.1151,5.115,5.1144,5.1145,5.1167,5.1165,5.1235,5.1245,5.1188,5.1188,5.1189,0,5.0846,5.0868,5.0895,5.0912,5.0925,5.0951,5.0968,5.0978,5.0995,5.1023,5.1041,5.107,5.1093,5.114,5.1155,5.1183,5.1183,5.1206,5.1187,5.1185,5.1185,5.1184,5.1187,5.1209,5.121,5.121,5.1211,0,5.0893,5.0898,5.0923,5.095,5.097,5.0992,5.1013,5.1026,5.104,5.106,5.1089,5.1108,5.1144,5.1174,5.1202,5.1215,5.1216,5.1216,5.1223,5.1222,5.1218,5.1222,5.1154,5.1215,5.1214,5.1214,5.1214,5.1214,5.0926,5.0946,5.0969,5.0997,5.1014,5.1034,5.1055,5.1068,5.1093,5.1124,5.1128,5.1161,5.1183,5.1222,5.1236,5.1262,5.1257,5.1266,5.1269,5.1271,5.1273,5.1213,5.1267,5.1267,5.1267,5.1267,5.1267,0,5.0974,5.0989,5.1014,5.1044,5.1066,5.1064,5.1088,5.1107,5.1135,5.1156,5.118,5.1215,5.1243,5.1262,5.1291,5.1308,5.1309,5.1315,5.1314,5.1318,5.1276,5.1268,5.1314,5.1314,5.1314,5.1314,5.1314,5.1314,5.1002,5.1037,5.1045,5.1089,5.1104,5.1136,5.115,5.1168,5.1185,5.1224,5.1248,5.126,5.128,5.1311,5.1338,5.1342,5.1353,5.136,5.1365,5.1325,5.1321,5.1316,5.1308,5.1362,5.1362,5.1405,5.1405,5.1405]},{"header":{"parameterUnit":"m.s-1","parameterCategory":1,"la1":30.2991,"la2":30.254,"lo1":-89.0895,"lo2":-89.0444,"dy":0.0017,"dx":0.0017,"nx":28,"ny":28,"refTime":"2025-05-28T21:00:00:Z","depth":0,"parameterNumber":3,"parameterNumberName":"V-component_of_WINDS"},"data":[0,0,0,0,0,0,0,0,0,0,0,0,0,0,0,0,0,0,0,0,0,0,0,0,0,0,0,0,0,0,0,0,0,0,0,0,0,0,0,0,0,0,0,0,0,0,0,0,0,0,0,0,0,0,0,0,0,0,-1.0787,-1.0787,0,-1.0773,-1.0773,-1.0773,-1.0811,-1.0812,-1.0813,-1.0814,-1.0796,-1.0794,-1.0793,0,0,0,0,0,0,0,0,0,0,0,0,0,-1.0846,-1.0844,-1.0788,-1.0787,-1.0787,-1.0773,-1.0773,-1.0773,-1.0811,-1.0812,-1.0814,-1.0815,-1.0796,-1.0794,-1.0792,0,0,0,0,0,0,0,0,0,0,0,0,0,-1.0825,-1.0844,-1.0788,-1.0805,-1.0806,-1.0773,-1.0773,-1.0773,-1.081,-1.0812,-1.0814,-1.0816,-1.0797,-1.0795,-1.0792,-1.0741,0,0,-1.0785,-1.0784,0,0,0,0,0,0,0,0,-1.0826,-1.0822,-1.0802,-1.0803,-1.0805,-1.0796,-1.0787,-1.0762,-1.081,-1.0809,-1.0815,-1.0817,-1.0794,-1.0792,-1.0785,-1.074,-1.0739,-1.0785,-1.0783,-1.0782,-1.0781,0,0,0,0,0,0,0,-1.0827,-1.0823,-1.0782,-1.0802,-1.0803,-1.0812,-1.0811,-1.0782,-1.0791,-1.0809,-1.0812,-1.081,-1.0795,-1.0787,-1.0785,-1.0739,-1.0785,-1.0782,-1.0781,-1.078,-1.0654,-1.0652,0,0,0,0,0,0,-1.0827,-1.0824,-1.0782,-1.0781,-1.082,-1.081,-1.0809,-1.0797,-1.0792,-1.0793,-1.0808,-1.0811,-1.0791,-1.0788,-1.0784,-1.0726,-1.0782,-1.078,-1.0778,-1.0656,-1.0653,-1.0651,0,0,0,0,0,0,-1.0828,-1.0823,-1.0783,-1.0804,-1.0799,-1.0807,-1.0793,-1.0796,-1.0788,-1.0791,-1.0793,-1.0799,-1.0792,-1.0788,-1.0752,-1.0726,-1.0779,-1.0776,-1.0658,-1.0655,-1.0652,-1.0607,0,0,0,0,0,0,-1.0829,-1.0823,-1.0804,-1.0803,-1.0798,-1.0751,-1.0792,-1.0794,-1.0784,-1.0788,-1.0783,-1.0784,-1.0793,-1.0756,-1.075,-1.0723,-1.0775,-1.066,-1.0657,-1.0653,-1.0611,-1.0603,-1.0597,0,0,0,0,0,-1.0831,-1.079,-1.0803,-1.0797,-1.0775,-1.075,-1.0747,-1.076,-1.0782,-1.0763,-1.0765,-1.0784,-1.073,-1.0752,-1.0746,-1.0718,-1.0662,-1.0658,-1.0654,-1.0615,-1.0605,-1.0597,0,0,0,0,0,0,-1.0786,-1.079,-1.0804,-1.0762,-1.0755,-1.0756,-1.0732,-1.0749,-1.0735,-1.0739,-1.0755,-1.0753,-1.0715,-1.0713,-1.0737,-1.0669,-1.07,-1.0694,-1.0672,-1.0663,-1.0656,-1.0657,-1.0773,0,0,0,0,0,-1.0772,-1.0752,-1.0757,-1.0719,-1.0715,-1.0724,-1.0714,-1.0725,-1.0718,-1.0715,-1.0715,-1.0707,-1.0688,-1.0675,-1.0658,-1.0611,-1.0611,-1.0589,-1.0582,-1.0576,-1.0571,-1.0547,-1.0538,-1.0637,-1.0637,-1.0637,0,0,-1.074,-1.0741,-1.0727,-1.071,-1.0706,-1.0685,-1.0722,-1.0697,-1.0682,-1.0711,-1.0678,-1.0678,-1.067,-1.0629,-1.0611,-1.0626,-1.0544,-1.057,-1.0566,-1.0564,-1.0542,-1.0533,-1.0524,-1.0634,-1.0635,-1.0635,0,0,-1.0674,-1.0671,-1.0641,-1.0637,-1.0632,-1.0639,-1.0631,-1.063,-1.0632,-1.0599,-1.0621,-1.0603,-1.057,-1.0564,-1.0557,-1.049,-1.0507,-1.0484,-1.0446,-1.0423,-1.0415,-1.0408,-1.0386,-1.0377,-1.0479,-1.0479,-1.0479,0,-1.0636,-1.0606,-1.0623,-1.0598,-1.059,-1.0617,-1.0587,-1.0582,-1.057,-1.0564,-1.0581,-1.0543,-1.0539,-1.0498,-1.0482,-1.0475,-1.0467,-1.0485,-1.0415,-1.0408,-1.0402,-1.0381,-1.0372,-1.0476,-1.0476,-1.0477,-1.0477,0,-1.056,-1.0539,-1.0515,-1.0506,-1.0495,-1.0467,-1.0479,-1.0466,-1.0479,-1.0484,-1.0451,-1.0448,-1.0432,-1.0423,-1.0433,-1.0384,-1.0394,-1.0413,-1.0444,-1.039,-1.037,-1.0362,-1.0472,-1.0473,-1.0474,-1.0475,0,0,-1.0463,-1.0466,-1.0456,-1.0454,-1.0451,-1.0435,-1.0408,-1.0394,-1.0383,-1.0375,-1.0354,-1.0326,-1.0345,-1.0337,-1.0347,-1.0327,-1.0276,-1.0349,-1.0349,-1.0336,-1.0223,-1.0209,-1.0199,-1.0288,-1.0286,-1.0285,-1.0224,0,-1.0399,-1.0355,-1.037,-1.0326,-1.0308,-1.0334,-1.0312,-1.0307,-1.0311,-1.0296,-1.03,-1.0281,-1.0306,-1.0302,-1.0283,-1.0286,-1.0254,-1.0291,-1.0268,-1.0267,-1.027,-1.0189,-1.0174,-1.0117,-1.0216,-1.0215,-1.0214,0,-1.0317,-1.0308,-1.0262,-1.0265,-1.0258,-1.0237,-1.0227,-1.0211,-1.0207,-1.0212,-1.0204,-1.0219,-1.0193,-1.0224,-1.0189,-1.0214,-1.0206,-1.0206,-1.0204,-1.0203,-1.0238,-1.0186,-1.0098,-1.009,-1.0202,-1.0203,-1.0204,0,-1.0253,-1.0229,-1.0199,-1.0196,-1.0197,-1.0183,-1.0182,-1.018,-1.0171,-1.0162,-1.0156,-1.0143,-1.0136,-1.0125,-1.0136,-1.0157,-1.01,-1.0131,-1.0103,-1.0103,-1.009,-1.0091,-1.0,-1.0083,-1.0083,-1.0083,-1.0083,0,-1.018,-1.0151,-1.0171,-1.0152,-1.0121,-1.0139,-1.0107,-1.011,-1.0108,-1.0091,-1.0112,-1.0095,-1.0111,-1.0095,-1.0103,-1.0074,-1.007,-1.0073,-1.0076,-1.0072,-1.0071,-1.0067,-1.0071,-1.0081,-1.0082,-1.0082,-1.0082,0,-1.0103,-1.0115,-1.0084,-1.0089,-1.009,-1.0067,-1.0071,-1.0054,-1.0061,-1.0038,-1.0034,-1.0044,-1.0026,-1.0037,-1.0018,-1.0024,-0.9987,-0.9994,-0.9989,-0.9991,-0.9963,-0.9966,-0.9867,-0.9855,-0.9944,-0.9943,-0.9943,0,-1.0055,-1.0035,-1.0038,-1.0029,-1.0028,-1.0012,-1.0004,-1.0021,-1.0011,-1.0006,-0.999,-0.9975,-0.9964,-0.9936,-0.9941,-0.9927,-0.9935,-0.9902,-0.9933,-0.9931,-0.9936,-0.9938,-0.9936,-0.9895,-0.9894,-0.9893,-0.9893,0,-0.9971,-0.9979,-0.9967,-0.9958,-0.9949,-0.9941,-0.9936,-0.9927,-0.9944,-0.9932,-0.9916,-0.9908,-0.9891,-0.9876,-0.9865,-0.9864,-0.9881,-0.9883,-0.9876,-0.9872,-0.987,-0.9872,-0.9972,-0.9885,-0.9886,-0.9886,-0.9887,-0.9887,-0.9908,-0.9892,-0.9893,-0.9879,-0.9878,-0.9873,-0.9858,-0.9864,-0.9851,-0.984,-0.985,-0.9831,-0.9828,-0.9816,-0.9813,-0.9798,-0.9812,-0.9801,-0.9799,-0.9796,-0.9793,-0.9872,-0.9796,-0.9796,-0.9797,-0.9797,-0.9797,0,-0.9827,-0.9829,-0.9817,-0.981,-0.98,-0.9818,-0.9814,-0.9804,-0.9788,-0.9785,-0.9774,-0.9756,-0.9743,-0.9747,-0.9735,-0.9722,-0.973,-0.9719,-0.972,-0.972,-0.9781,-0.9789,-0.9713,-0.9713,-0.9713,-0.9713,-0.9713,-0.9713,-0.9783,-0.9757,-0.9765,-0.9738,-0.974,-0.9723,-0.9719,-0.9715,-0.9713,-0.9693,-0.9682,-0.9686,-0.9686,-0.9674,-0.9663,-0.9665,-0.9659,-0.9645,-0.965,-0.9707,-0.9715,-0.9723,-0.9731,-0.9644,-0.9644,-0.9591,-0.959,-0.959]}]]